Location: Jetmore Oil Field
(38.1181°N, 99.9337°W)
Time: 00:52:08
(UTC+00:00)

ISS - Pass Details

Date: 01 July 2021
Orbit: 419 x 421 km, 51.6° (Epoch: 30 July)

Event Time Altitude Azimuth Distance (km) Brightness Sun altitude
Exits shadow 08:31:37 34° 69° (ENE) 716 -2.2 -23.8°
Drops below altitude 10° 08:33:41 10° 56° (ENE) 1,499 -0.1 -23.6°
Sets 08:35:48 0° 53° (NE) 2,366 1.1 -23.4°
